EHI
20 29 37 24 6 1 0 0 0 0 0 0 0 0 0 0 0 0 0 0 0 0 0 0 0 0 0 0 1 0 0 0 0 0 0 0 0 0 0 0 0 0 0
23 29 38 28 9 2 1 0 0 0 0 0 0 0 0 0 0 0 0 0 0 0 0 0 0 0 0 0 1 0 0 0 0 0 0 0 0 0 0 0 0 0 0
21 23 31 28 12 3 1 0 0 0 0 0 0 0 0 0 0 0 0 0 0 0 0 0 0 0 0 0 0 0 0 0 0 0 0 0 0 0 0 0 0 0 0
14 14 21 23 12 4 2 1 0 0 0 0 0 0 0 0 0 0 0 0 1 1 1 0 0 0 0 0 0 0 0 0 0 0 0 0 1 1 0 0 0 0 0
5 9 19 21 11 3 3 2 1 0 0 0 0 0 0 0 0 0 0 0 1 2 1 0 0 0 0 0 0 0 0 0 0 0 1 1 3 4 2 0 0 0 0
6 11 21 23 13 4 3 2 1 0 0 0 1 1 1 1 1 0 0 0 1 1 1 0 0 0 0 0 0 0 0 0 0 0 0 5 14 20 13 4 1 0 0
19 19 22 25 18 7 2 1 0 0 0 0 1 2 2 2 1 1 1 1 1 0 0 0 0 0 0 0 1 1 1 1 0 0 0 11 37 51 37 16 5 1 0
37 32 25 24 21 11 4 2 1 0 0 0 1 1 1 1 1 1 2 3 3 2 1 1 1 2 2 2 3 4 3 2 1 0 0 17 53 76 64 35 14 5 1
53 43 25 17 18 14 8 5 3 2 2 1 1 0 0 0 0 1 4 6 6 5 4 4 4 4 4 6 8 9 7 4 2 0 0 18 58 85 78 51 25 10 4
57 44 24 15 15 12 9 9 9 9 8 6 4 3 1 0 2 8 14 17 15 13 13 11 8 6 5 8 13 14 11 6 3 1 3 24 60 85 82 60 33 15 8
46 37 27 23 19 10 13 19 19 16 14 10 9 11 10 4 5 16 29 37 38 36 33 28 19 9 5 7 15 21 17 8 3 1 11 38 69 85 81 62 38 19 11
32 28 31 37 27 10 19 33 29 23 26 21 18 25 29 20 11 17 38 58 65 62 52 41 27 14 7 5 15 25 20 9 4 3 21 55 81 86 79 62 40 21 13
22 20 32 48 37 15 25 42 37 33 44 46 40 46 54 45 27 25 48 72 79 74 57 41 33 25 14 8 13 22 20 11 6 11 34 66 85 85 77 61 38 21 13
21 21 37 58 50 27 29 42 41 39 52 63 67 69 73 69 54 50 66 82 83 75 61 46 44 42 31 22 19 21 19 14 11 20 45 71 81 79 73 60 39 22 15
28 30 48 68 66 48 39 43 42 41 50 65 76 82 85 84 79 76 83 89 84 76 66 58 56 57 53 43 32 25 21 19 20 29 48 68 75 73 69 62 46 30 23
39 45 62 77 81 72 58 52 48 46 52 64 76 86 91 93 92 91 92 91 86 76 69 66 64 65 64 56 42 30 26 27 30 36 47 61 69 68 64 61 52 40 34
57 67 77 83 88 89 79 69 59 53 60 74 84 89 92 93 93 91 89 86 81 74 69 65 63 61 60 55 44 34 32 35 37 41 46 53 58 59 57 57 53 46 41
80 85 85 82 89 95 91 82 69 63 69 79 86 89 88 86 83 83 81 77 73 68 61 55 53 53 51 48 42 36 36 40 41 42 43 46 50 52 52 53 54 51 47
93 93 88 85 89 93 91 82 72 67 67 68 73 80 78 71 68 70 71 68 65 62 56 49 50 50 47 42 37 34 36 41 43 42 39 40 46 49 47 49 56 55 51
95 95 93 90 89 88 84 76 68 62 55 50 57 65 60 50 50 52 53 54 54 54 52 49 46 45 43 39 30 28 32 37 42 42 38 36 38 39 38 43 50 52 49
95 94 92 88 84 81 77 71 66 58 46 39 46 50 40 30 30 31 32 36 37 37 38 39 36 33 35 36 29 21 21 27 33 38 38 36 31 29 29 34 39 43 44
90 88 85 82 78 76 73 66 61 53 39 32 38 41 30 19 15 16 18 20 21 20 21 25 26 26 28 33 31 18 10 14 21 28 35 35 32 30 27 26 29 34 37
78 79 80 79 76 73 70 62 54 47 36 32 38 41 33 18 10 9 11 12 11 10 11 15 17 20 24 30 29 18 8 7 11 17 24 28 31 34 29 23 23 29 34
69 74 80 81 78 74 70 64 58 53 46 45 47 46 38 26 16 13 13 13 12 9 9 10 12 15 19 22 23 19 12 9 6 7 11 16 23 29 28 24 24 30 35
63 70 77 80 80 76 73 71 69 66 63 60 58 53 45 35 29 25 23 23 20 14 10 10 11 12 12 14 16 17 13 9 6 3 3 6 12 18 23 25 28 32 34
56 63 72 78 80 77 76 76 75 73 72 68 65 59 50 41 37 34 31 31 27 18 14 13 13 11 9 9 14 16 13 9 8 4 1 2 6 11 18 25 29 31 31
Wind_Speed
19 19 19 16 15 14 15 14 14 13 12 12 11 10 10 10 10 10 10 10 10 10 10 10 9 9 9 10 10 10 10 10 9 9 9 10 9 8 7 7 4 9 12
22 19 19 17 15 15 14 14 14 13 12 12 11 10 10 9 9 9 9 9 9 9 9 9 9 9 9 8 8 8 7 6 5 5 6 7 8 7 6 7 9 9 10
21 19 18 17 15 14 14 14 13 13 12 12 11 10 9 9 8 8 8 8 8 8 8 8 8 7 7 7 6 6 5 3 2 2 4 5 8 8 6 6 8 9 8
21 18 17 18 16 15 14 13 13 12 12 11 11 10 9 8 8 7 7 7 7 7 7 7 7 6 6 6 5 4 3 1 3 5 6 6 6 10 7 5 5 6 6
19 17 18 18 16 15 14 13 12 12 11 11 10 9 9 8 7 7 7 6 6 6 6 6 6 6 5 5 4 3 3 3 5 8 7 3 6 11 10 7 4 4 4
19 18 19 18 16 15 14 13 12 12 11 10 10 9 8 7 7 6 6 6 5 5 5 5 5 5 5 5 5 4 4 5 7 8 7 4 7 12 11 9 6 6 6
19 18 18 18 17 15 14 13 12 11 10 10 9 8 8 7 7 6 6 6 6 5 5 5 6 6 6 6 6 6 6 7 7 8 7 4 8 14 13 11 8 7 7
20 19 17 18 17 15 14 12 11 11 10 9 9 8 8 7 7 7 7 7 7 7 7 7 7 7 7 8 8 8 9 10 9 9 8 5 11 16 14 12 9 8 8
20 19 16 15 14 15 14 13 12 11 10 10 9 9 9 9 9 9 10 10 10 10 9 9 9 10 10 10 10 11 11 12 9 7 10 4 13 16 15 13 11 10 9
18 18 16 15 13 12 12 14 13 12 12 11 11 10 10 11 12 13 12 13 13 12 12 12 12 12 12 12 12 13 14 12 11 11 8 5 13 15 14 13 12 11 11
15 16 16 15 13 13 13 14 14 13 12 11 11 13 11 9 11 12 16 16 17 16 14 14 13 13 13 13 15 16 13 8 11 9 7 9 14 15 14 13 12 12 12
12 13 13 15 14 13 11 11 10 10 11 10 9 10 10 8 8 10 10 17 18 18 16 15 14 13 11 9 12 16 8 11 11 8 6 13 15 15 14 13 13 13 13
10 11 11 13 10 10 7 9 7 7 8 11 11 9 8 7 6 7 4 8 10 13 10 11 12 9 9 8 6 6 10 9 6 6 5 14 15 15 15 14 14 14 14
11 11 11 11 7 4 3 5 5 5 5 7 9 10 7 5 5 4 2 3 5 5 6 6 5 9 9 8 8 7 9 6 4 3 4 12 14 14 14 14 14 14 15
11 10 9 9 9 5 2 1 2 2 2 3 4 6 5 4 4 3 2 1 2 3 4 5 4 4 4 5 5 6 6 6 5 3 3 11 14 14 14 15 15 15 15
13 12 10 9 9 6 3 2 2 3 1 2 1 2 3 2 2 1 2 2 3 3 3 3 3 3 3 3 5 6 5 5 5 5 4 7 14 15 16 16 16 16 16
13 11 10 9 9 8 6 5 4 4 3 2 1 1 2 2 1 2 3 3 4 4 4 3 4 3 4 5 5 6 6 6 6 6 5 4 5 13 17 17 17 17 17
10 9 9 9 10 9 5 3 3 3 2 1 1 0 0 1 2 2 3 4 3 3 3 3 4 4 4 4 4 5 5 5 7 7 5 5 5 6 11 17 17 17 17
8 9 8 5 8 7 6 4 4 2 1 2 2 0 0 1 2 1 2 3 4 3 3 5 4 3 4 5 5 6 6 6 6 8 7 8 7 7 6 9 16 17 17
9 9 8 5 5 5 4 3 3 3 2 2 2 1 1 1 1 1 3 3 3 3 3 3 4 4 4 5 7 7 5 6 6 6 7 7 7 8 8 7 6 10 16
8 8 7 6 5 3 2 2 2 2 2 2 2 3 2 1 1 2 3 2 3 3 4 4 4 5 5 4 4 5 5 7 7 6 6 6 7 7 6 5 4 4 6
7 7 7 5 4 3 2 1 1 0 1 0 2 3 1 0 2 3 1 3 3 3 5 5 4 4 4 4 3 4 4 4 6 8 6 7 8 6 6 8 6 6 6
6 4 5 4 3 2 2 2 1 1 2 1 1 2 2 0 2 2 3 3 3 4 4 4 4 5 4 4 4 4 3 4 3 3 5 5 5 5 5 5 6 7 7
6 5 5 4 3 2 1 2 2 2 2 1 1 1 1 1 3 3 3 3 3 4 5 5 4 3 4 5 4 4 5 4 4 4 3 4 5 5 5 5 5 4 4
7 6 5 5 4 3 3 3 3 4 4 3 3 2 1 3 4 5 4 2 3 4 5 4 5 5 4 5 5 4 5 5 6 5 6 4 3 3 4 4 3 2 2
8 8 8 7 6 5 5 5 4 5 5 6 5 5 4 3 4 5 4 2 3 4 4 4 5 6 5 6 5 5 5 4 4 5 6 5 4 3 3 2 2 2 2
Wind_Direction
124 133 135 133 132 134 138 140 140 136 135 133 130 126 122 117 112 108 103 101 102 103 102 100 95 91 86 83 80 77 76 77 82 89 94 95 95 93 88 79 79 108 104
126 134 136 135 136 137 140 142 142 140 139 136 134 132 130 127 121 116 112 109 107 106 105 103 101 97 95 93 91 90 88 89 95 109 120 121 114 105 91 65 51 105 110
126 134 137 137 139 140 141 144 145 145 143 141 140 139 137 134 129 125 122 119 116 114 113 111 109 106 105 104 102 102 103 107 134 176 200 181 136 128 110 88 87 105 114
129 140 140 141 142 142 143 146 149 150 149 148 147 146 145 143 140 136 131 129 127 125 125 125 123 120 119 118 119 122 129 178 259 264 239 219 159 141 134 117 111 119 127
134 140 138 147 146 147 147 149 152 154 154 155 154 154 154 154 152 149 146 145 143 142 142 142 141 141 142 144 150 162 186 235 268 272 268 228 139 150 150 145 149 157 161
138 138 143 151 151 152 154 156 158 160 160 161 162 163 165 167 168 167 166 166 167 167 166 167 168 168 170 175 183 197 217 241 265 262 260 236 144 159 159 162 176 193 197
141 137 148 154 155 158 161 163 165 167 168 169 171 174 179 183 188 190 189 191 194 197 197 198 199 198 197 200 206 215 226 240 254 272 277 247 151 159 165 170 186 206 213
137 138 147 156 159 163 167 170 173 176 178 181 184 189 195 202 209 213 215 214 215 217 220 221 220 220 219 218 220 224 230 243 247 254 259 245 162 167 171 174 185 208 221
135 135 149 157 163 168 173 178 181 185 188 192 197 203 209 216 222 227 229 228 227 226 227 229 231 232 230 227 226 228 232 237 257 269 269 252 169 173 176 179 189 206 221
133 140 154 159 165 172 178 185 188 192 196 201 208 214 220 227 231 233 233 228 229 229 230 233 235 236 236 234 231 231 233 238 244 252 254 233 176 177 181 186 196 209 221
140 145 158 159 168 178 183 182 188 196 202 207 213 220 225 232 233 226 227 224 222 224 227 231 236 239 240 239 236 233 232 234 240 239 235 204 183 182 186 192 202 213 221
149 154 162 158 170 185 190 164 185 194 196 205 212 208 211 225 243 249 220 214 216 219 224 228 235 240 240 244 236 227 227 230 242 244 223 187 181 184 189 197 207 216 222
160 165 165 155 171 184 179 161 189 196 185 196 214 210 206 218 233 242 217 200 208 215 221 225 225 229 232 233 242 208 218 232 229 235 211 179 182 187 193 201 210 218 223
174 178 170 155 161 194 191 176 183 198 182 193 195 206 207 205 231 249 246 198 194 207 211 227 212 215 226 233 231 227 221 229 240 229 176 178 187 195 201 207 213 219 223
178 180 165 154 156 174 208 284 217 217 208 196 179 194 204 205 219 237 257 268 260 247 221 222 235 230 225 237 245 250 246 245 247 242 200 188 193 202 209 213 217 221 223
178 180 164 161 154 160 175 205 287 282 250 269 246 216 206 221 242 277 276 266 266 270 274 267 260 248 240 246 253 257 256 255 251 245 234 209 205 208 214 218 220 222 224
181 173 155 163 159 161 186 202 221 238 240 222 220 239 223 239 262 255 265 260 253 258 263 267 275 271 261 253 249 254 256 253 252 247 244 240 219 218 218 220 222 222 224
169 152 156 170 160 159 172 190 244 261 295 325 321 312 150 278 267 257 260 266 270 265 260 254 247 252 256 258 255 255 254 251 249 247 242 239 235 240 225 225 225 223 223
142 135 140 150 145 153 165 178 221 237 255 270 262 239 77 289 282 262 267 268 274 275 267 265 257 243 254 255 252 244 240 241 243 246 242 239 232 233 231 227 225 225 224
128 121 124 125 120 136 154 182 219 221 220 225 217 150 115 291 310 328 273 267 279 272 266 268 276 268 256 256 264 264 245 239 234 234 240 243 240 239 237 239 221 226 226
113 115 121 128 132 144 162 187 208 206 224 218 176 117 95 337 345 292 289 314 286 277 284 281 274 275 268 255 256 267 257 245 239 234 230 237 244 240 237 233 227 230 229
102 112 116 122 147 162 140 161 195 285 277 222 82 113 130 26 347 296 339 315 308 308 288 274 272 269 274 264 256 277 275 259 237 236 228 228 236 233 232 238 224 223 229
70 84 109 123 136 132 146 208 215 198 262 263 165 159 144 151 277 293 302 293 307 297 294 306 292 282 280 277 245 240 259 264 296 259 243 241 232 229 229 234 227 218 217
63 67 74 89 85 82 65 356 323 280 281 286 235 208 135 242 248 252 255 272 289 292 294 291 308 309 292 284 269 242 244 271 283 290 274 255 240 234 232 242 247 227 208
51 50 48 58 59 37 16 351 325 315 321 329 340 308 245 250 236 233 228 235 266 276 285 299 300 287 281 279 282 283 273 264 249 254 273 271 261 246 234 230 229 225 187
39 40 39 38 36 19 11 360 342 324 320 318 317 307 290 269 247 231 222 209 245 264 284 290 284 281 273 273 274 272 270 264 258 249 257 264 260 251 237 216 193 177 151